Location: Central Falls
(41.8900°N, 71.3929°W)
Time: 21:51:17
(UTC+00:00)

Altair - All Passes

Search period start: 06 December 2023 00:00
Search period end: 16 December 2023 00:00
Orbit: 1501 x 1682 km, 47.2° (Epoch: 05 December)

Date Brightness Start Highest point End Pass type
(mag) Time Alt. Az. Time Alt. Az. Time Alt. Az.
06 Dec - 10:34:34 10° S 10:42:14 26° SE 10:49:41 10° ENE visible
06 Dec - 12:36:11 10° SW 12:45:56 74° SSE 12:55:19 10° ENE daylight
06 Dec - 14:41:25 10° W 14:51:00 66° N 15:00:15 10° ENE daylight
06 Dec - 16:47:09 10° WNW 16:56:35 72° NNE 17:05:46 10° E daylight
06 Dec - 18:52:11 10° WNW 19:01:14 59° SW 19:10:08 10° SE daylight
06 Dec - 20:59:07 10° W 21:04:22 17° SW 21:09:38 10° SSW daylight
07 Dec - 10:09:49 10° S 10:17:08 24° SE 10:24:15 10° E visible
07 Dec - 12:11:01 10° SW 12:20:45 70° SSE 12:30:08 10° ENE daylight
07 Dec - 14:16:07 10° W 14:25:44 68° N 14:35:02 10° ENE daylight
07 Dec - 16:21:52 10° WNW 16:31:21 70° NNE 16:40:32 10° E daylight
07 Dec - 18:26:57 10° WNW 18:36:06 63° SW 18:45:04 10° SE daylight
07 Dec - 20:33:28 10° W 20:39:20 19° SW 20:45:11 10° SSW daylight
08 Dec - 09:45:09 10° S 09:52:02 22° SE 09:58:46 10° E visible
08 Dec - 11:45:51 10° SW 11:55:34 66° SE 12:04:55 10° ENE daylight
08 Dec - 13:50:47 10° W 14:00:28 69° NNW 14:09:48 10° ENE daylight
08 Dec - 15:56:36 10° WNW 16:06:06 68° NNE 16:15:17 10° E daylight
08 Dec - 18:01:43 10° WNW 18:10:57 68° SW 18:19:58 10° SE daylight
08 Dec - 20:07:55 10° W 20:14:17 21° SW 20:20:38 10° S daylight
09 Dec - 09:20:33 10° SSE 09:26:57 19° SE 09:33:15 10° E visible
09 Dec - 11:20:42 10° SW 11:30:23 62° SE 11:39:43 10° ENE visible
09 Dec - 13:25:28 10° W 13:35:13 71° NNW 13:44:35 10° ENE daylight
09 Dec - 15:31:19 10° WNW 15:40:50 67° N 15:50:02 10° E daylight
09 Dec - 17:36:28 10° WNW 17:45:47 72° SSW 17:54:53 10° SE daylight
09 Dec - 19:42:26 10° W 19:49:14 24° SW 19:56:00 10° S daylight
10 Dec - 08:56:02 10° SSE 09:01:53 17° SE 09:07:37 10° E visible
10 Dec - 10:55:35 10° SW 11:05:12 58° SE 11:14:30 10° ENE visible
10 Dec - 13:00:09 10° WSW 13:09:57 73° NNW 13:19:22 10° ENE daylight
10 Dec - 15:06:02 10° WNW 15:15:34 66° N 15:24:46 10° E daylight
10 Dec - 17:11:14 10° WNW 17:20:37 76° SSW 17:29:45 10° SE daylight
10 Dec - 19:16:59 10° WNW 19:24:11 26° SW 19:31:18 10° S daylight
11 Dec - 08:31:40 10° SSE 08:36:49 15° SE 08:41:53 10° E visible
11 Dec - 10:30:28 10° SW 10:40:02 55° SE 10:49:16 10° ENE visible
11 Dec - 12:34:51 10° WSW 12:44:42 76° NNW 12:54:09 10° ENE daylight
11 Dec - 14:40:44 10° WNW 14:50:17 65° N 14:59:31 10° E daylight
11 Dec - 16:46:00 10° WNW 16:55:26 80° SSW 17:04:37 10° SE daylight
11 Dec - 18:51:35 10° WNW 18:59:06 29° SW 19:06:33 10° S daylight
12 Dec - 08:07:29 10° SSE 08:11:45 14° ESE 08:15:58 10° E visible
12 Dec - 10:05:24 10° SSW 10:14:53 51° SE 10:24:02 10° ENE visible
12 Dec - 12:09:32 10° WSW 12:19:26 78° NNW 12:28:56 10° ENE daylight
12 Dec - 14:15:25 10° WNW 14:25:01 64° N 14:34:16 10° E daylight
12 Dec - 16:20:45 10° WNW 16:30:15 84° SSW 16:39:28 10° ESE daylight
12 Dec - 18:26:13 10° WNW 18:34:02 32° SW 18:41:45 10° S daylight
13 Dec - 07:43:40 10° SE 07:46:42 12° ESE 07:49:42 10° ESE visible
13 Dec - 09:40:21 10° SSW 09:49:43 47° SE 09:58:47 10° ENE visible
13 Dec - 11:44:14 10° WSW 11:54:11 81° NNW 12:03:45 10° ENE daylight
13 Dec - 13:50:06 10° WNW 13:59:44 64° N 14:09:00 10° E daylight
13 Dec - 15:55:30 10° WNW 16:05:03 88° SSW 16:14:17 10° ESE daylight
13 Dec - 18:00:52 10° WNW 18:08:58 35° SW 18:16:55 10° SSE daylight
14 Dec - 09:15:19 10° SSW 09:24:34 44° SE 09:33:32 10° ENE visible
14 Dec - 11:18:57 10° WSW 11:28:55 84° NNW 11:38:32 10° ENE visible
14 Dec - 13:24:47 10° W 13:34:27 64° N 13:43:45 10° E daylight
14 Dec - 15:30:15 10° WNW 15:39:51 88° NNE 15:49:06 10° ESE daylight
14 Dec - 17:35:32 10° WNW 17:43:52 38° SW 17:52:03 10° SSE daylight
15 Dec - 08:50:20 10° SSW 08:59:26 41° SE 09:08:15 10° ENE visible
15 Dec - 10:53:41 10° WSW 11:03:42 87° NNW 11:13:20 10° ENE visible
15 Dec - 12:59:27 10° W 13:09:10 64° N 13:18:31 10° E daylight
15 Dec - 15:04:59 10° WNW 15:14:38 85° NNE 15:23:55 10° ESE daylight
15 Dec - 17:10:13 10° WNW 17:18:46 41° SW 17:27:08 10° SSE daylight
